This demonstration page uses our WeatherBlox Daily Observations layout. Learn more.

Left ArrowRight Arrow

Hourly Observations for July 14, 2017

Temp ( °F °C ) Dew Point ( °F °C ) Humidity (%) Winds ( mph kmh ) Pressure ( in mb ) Visibility ( mi km ) Precip ( " mm )
12:53 am 00:53 Clear 78 25.6 51 10.6 39 39 Calm 29.93 1014 10 16 0.00 0.00
1:53 am 01:53 Clear 76 24.4 50 10 40 40 NW 6 9 29.93 1014 10 16 0.00 0.00
2:53 am 02:53 Clear 76 24.4 51 10.6 42 42 undefined N/A 29.93 1014 10 16 0.00 0.00
3:53 am 03:53 Clear 74 23.3 52 11.1 46 46 NNW 5 7 29.93 1013 10 16 0.00 0.00
4:53 am 04:53 Clear 73 22.8 53 11.7 50 50 NNW 6 9 29.93 1013 10 16 0.00 0.00
5:53 am 05:53 Sunny 70 21.1 54 12.2 57 57 N 3 6 29.94 1014 10 16 0.00 0.00
6:53 am 06:53 Sunny 71 21.7 54 12.2 55 55 Calm 29.95 1014 10 16 0.00 0.00
7:53 am 07:53 Sunny 77 25 54 12.2 45 45 Calm 29.96 1015 10 16 0.00 0.00
8:53 am 08:53 Sunny 83 28.3 52 11.1 34 34 NW 6 9 29.96 1014 10 16 0.00 0.00
9:53 am 09:53 Sunny 87 30.6 51 10.6 29 29 Calm 29.95 1014 10 16 0.00 0.00
10:53 am 10:53 Sunny 91 32.8 52 11.1 26 26 VRB 3 6 29.95 1014 10 16 0.00 0.00
11:53 am 11:53 Sunny 94 34.4 51 10.6 23 23 VRB 5 7 29.94 1014 10 16 0.00 0.00
12:53 pm 12:53 Sunny 97 36.1 48 8.9 19 19 SW 5 7 29.93 1014 10 16 0.00 0.00
1:53 pm 13:53 Sunny 98 36.7 46 7.8 17 17 VRB 3 6 29.92 1013 10 16 0.00 0.00
2:53 pm 14:53 Sunny 100 37.8 47 8.3 16 16 S 7 11 29.91 1013 10 16 0.00 0.00
3:53 pm 15:53 Sunny 101 38.3 44 6.7 14 14 SE 14 22 29.90 1012 10 16 0.00 0.00
4:53 pm 16:53 Sunny 102 38.9 44 6.7 14 14 S 10 17 29.88 1012 10 16 0.00 0.00
5:53 pm 17:53 Sunny 100 37.8 42 5.6 14 14 S 12 19 29.87 1012 10 16 0.00 0.00
6:53 pm 18:53 Sunny 98 36.7 39 3.9 13 13 S 10 17 29.87 1012 10 16 0.00 0.00
7:53 pm 19:53 Sunny 96 35.6 44 6.7 17 17 S 8 13 29.88 1012 10 16 0.00 0.00
8:53 pm 20:53 Clear 91 32.8 45 7.2 20 20 S 5 7 29.89 1012 10 16 0.00 0.00
9:53 pm 21:53 Clear 87 30.6 47 8.3 25 25 Calm 29.92 1013 10 16 0.00 0.00
10:53 pm 22:53 Clear 82 27.8 50 10 33 33 Calm 29.93 1014 10 16 0.00 0.00
11:53 pm 23:53 Clear 79 26.1 53 11.7 41 41 Calm 29.94 1014 10 16 0.00 0.00

Powered by AerisWeather